| time (UTC) | temp F | wind direction | speed knots | gust knots | rain 1hr in | rain 24hr in | rain mn in | humidity % | barometer mb |
| 20260508214122 | 53 | 270 | 0.0 | 0.0 | 0.00 | 0.00 | 0.00 | 43 | 1010.9 |
| 20260508213611 | 53 | 293 | 0.0 | 0.0 | 0.00 | 0.00 | 0.00 | 43 | 1010.8 |
| 20260508213102 | 54 | 270 | 0.0 | 0.0 | 0.00 | 0.00 | 0.00 | 42 | 1010.8 |
| 20260508212553 | 52 | 270 | 0.0 | 0.0 | 0.00 | 0.00 | 0.00 | 46 | 1010.7 |
| 20260508212042 | 53 | 293 | 0.0 | 0.0 | 0.00 | 0.00 | 0.00 | 43 | 1010.6 |
| 20260508210512 | 57 | 135 | 0.0 | 0.0 | 0.00 | 0.00 | 0.00 | 37 | 1010.7 |
| 20260508205453 | 60 | 113 | 0.0 | 0.0 | 0.00 | 0.00 | 0.00 | 33 | 1010.7 |
| 20260508204942 | 61 | 293 | 0.0 | 0.0 | 0.00 | 0.00 | 0.00 | 33 | 1010.5 |
| 20260508204433 | 61 | 270 | 0.0 | 0.0 | 0.00 | 0.00 | 0.00 | 32 | 1010.6 |
| 20260508203923 | 62 | 270 | 0.0 | 0.0 | 0.00 | 0.00 | 0.00 | 31 | 1010.4 |
| 20260508203412 | 62 | 270 | 0.0 | 0.0 | 0.00 | 0.00 | 0.00 | 28 | 1010.6 |
| 20260508202902 | 63 | 270 | 0.0 | 0.0 | 0.00 | 0.00 | 0.00 | 27 | 1010.5 |
| 20260508202353 | 63 | 270 | 0.0 | 0.0 | 0.00 | 0.00 | 0.00 | 25 | 1010.3 |
| 20260508201841 | 63 | 270 | 0.0 | 1.7 | 0.00 | 0.00 | 0.00 | 26 | 1010.4 |
| 20260508201330 | 62 | 203 | 0.0 | 3.5 | 0.00 | 0.00 | 0.00 | 25 | 1010.3 |
| 20260508200819 | 63 | 248 | 0.0 | 3.5 | 0.00 | 0.00 | 0.00 | 25 | 1010.3 |
| 20260508200311 | 63 | 113 | 0.0 | 3.5 | 0.00 | 0.00 | 0.00 | 25 | 1010.4 |
| 20260508195249 | 64 | 90 | 0.0 | 1.7 | 0.00 | 0.00 | 0.00 | 25 | 1010.1 |
| 20260508194739 | 64 | 270 | 0.0 | 3.5 | 0.00 | 0.00 | 0.00 | 26 | 1010.0 |
| 20260508194228 | 63 | 68 | 0.0 | 7.0 | 0.00 | 0.00 | 0.00 | 26 | 1010.3 |
| 20260508193718 | 63 | 293 | 0.9 | 9.6 | 0.00 | 0.00 | 0.00 | 23 | 1010.2 |
| 20260508193210 | 63 | 293 | 0.9 | 9.6 | 0.00 | 0.00 | 0.00 | 24 | 1010.3 |
| 20260508192703 | 64 | 158 | 0.0 | 3.5 | 0.00 | 0.00 | 0.00 | 23 | 1010.4 |
| 20260508192150 | 64 | 270 | 0.0 | 7.8 | 0.00 | 0.00 | 0.00 | 25 | 1010.4 |
| 20260508191640 | 63 | 270 | 0.0 | 7.8 | 0.00 | 0.00 | 0.00 | 24 | 1010.5 |
| 20260508191130 | 64 | 270 | 0.0 | 13.9 | 0.00 | 0.00 | 0.00 | 27 | 1010.4 |
| 20260508190620 | 63 | 225 | 0.0 | 13.9 | 0.00 | 0.00 | 0.00 | 26 | 1010.6 |
| 20260508190110 | 63 | 248 | 3.5 | 13.9 | 0.00 | 0.00 | 0.00 | 27 | 1010.6 |
| 20260508185603 | 63 | 270 | 1.7 | 12.2 | 0.00 | 0.00 | 0.00 | 27 | 1010.7 |
| 20260508185050 | 63 | 248 | 1.7 | 12.2 | 0.00 | 0.00 | 0.00 | 29 | 1010.6 |
| 20260508184538 | 64 | 338 | 0.0 | 13.0 | 0.00 | 0.00 | 0.00 | 27 | 1010.7 |
| 20260508183518 | 63 | 270 | 1.7 | 15.6 | 0.00 | 0.00 | 0.00 | 30 | 1010.9 |
| 20260508183007 | 62 | 270 | 7.8 | 15.6 | 0.00 | 0.00 | 0.00 | 29 | 1011.0 |
| 20260508182457 | 62 | 270 | 7.8 | 13.9 | 0.00 | 0.00 | 0.00 | 29 | 1011.0 |
| 20260508181948 | 63 | 270 | 7.0 | 13.0 | 0.00 | 0.00 | 0.00 | 31 | 1010.8 |
| 20260508181437 | 62 | 248 | 2.6 | 13.9 | 0.00 | 0.00 | 0.00 | 32 | 1011.0 |
| 20260508180418 | 62 | 248 | 7.0 | 13.9 | 0.00 | 0.00 | 0.00 | 33 | 1011.2 |
| 20260508175908 | 62 | 248 | 1.7 | 13.0 | 0.00 | 0.00 | 0.00 | 33 | 1010.9 |
| 20260508175358 | 62 | 248 | 0.0 | 13.0 | 0.00 | 0.00 | 0.00 | 34 | 1011.0 |
| 20260508174338 | 61 | 270 | 4.3 | 12.2 | 0.00 | 0.00 | 0.00 | 32 | 1011.3 |
| 20260508173829 | 61 | 293 | 4.3 | 13.9 | 0.00 | 0.00 | 0.00 | 36 | 1011.3 |
| 20260508173318 | 61 | 293 | 8.7 | 13.9 | 0.00 | 0.00 | 0.00 | 35 | 1011.3 |
| 20260508172808 | 61 | 248 | 2.6 | 12.2 | 0.00 | 0.00 | 0.00 | 35 | 1011.4 |
| 20260508172259 | 60 | 270 | 1.7 | 12.2 | 0.00 | 0.00 | 0.00 | 35 | 1011.6 |
| 20260508171749 | 60 | 225 | 2.6 | 11.3 | 0.00 | 0.00 | 0.00 | 36 | 1011.4 |
| 20260508171235 | 61 | 248 | 3.5 | 9.6 | 0.00 | 0.00 | 0.00 | 35 | 1011.6 |
| 20260508170727 | 60 | 248 | 0.0 | 12.2 | 0.00 | 0.00 | 0.00 | 37 | 1011.7 |
| 20260508170216 | 61 | 270 | 1.7 | 12.2 | 0.00 | 0.00 | 0.00 | 38 | 1011.7 |
| 20260508165706 | 60 | 270 | 1.7 | 9.6 | 0.00 | 0.00 | 0.00 | 38 | 1011.7 |
| 20260508165155 | 61 | 270 | 3.5 | 9.6 | 0.00 | 0.00 | 0.00 | 36 | 1011.9 |
| 20260508164648 | 60 | 23 | 0.0 | 7.8 | 0.00 | 0.00 | 0.00 | 38 | 1011.9 |
| 20260508164136 | 61 | 270 | 0.9 | 9.6 | 0.00 | 0.00 | 0.00 | 39 | 1012.2 |
| 20260508163116 | 60 | 270 | 1.7 | 6.1 | 0.00 | 0.00 | 0.00 | 40 | 1012.2 |
| 20260508162606 | 61 | 315 | 0.0 | 3.5 | 0.00 | 0.00 | 0.00 | 40 | 1012.3 |
| 20260508162056 | 61 | 248 | 0.0 | 6.1 | 0.00 | 0.00 | 0.00 | 41 | 1012.4 |
| 20260508161548 | 60 | 270 | 0.0 | 9.6 | 0.00 | 0.00 | 0.00 | 38 | 1012.4 |
| 20260508161035 | 60 | 293 | 4.3 | 13.0 | 0.00 | 0.00 | 0.00 | 40 | 1012.5 |
| 20260508160528 | 60 | 248 | 0.9 | 13.0 | 0.00 | 0.00 | 0.00 | 39 | 1012.5 |
| 20260508155506 | 58 | 248 | 0.0 | 9.6 | 0.00 | 0.00 | 0.00 | 43 | 1012.9 |
| 20260508155001 | 58 | 270 | 0.0 | 12.2 | 0.00 | 0.01 | 0.00 | 43 | 1012.9 |
| 20260508154448 | 59 | 315 | 4.3 | 12.2 | 0.00 | 0.01 | 0.00 | 43 | 1013.1 |
| 20260508153423 | 59 | 270 | 1.7 | 6.1 | 0.00 | 0.01 | 0.00 | 42 | 1013.2 |
| 20260508152914 | 59 | 225 | 0.0 | 3.5 | 0.00 | 0.01 | 0.00 | 44 | 1013.3 |
| 20260508152407 | 58 | 203 | 0.0 | 3.5 | 0.00 | 0.01 | 0.00 | 43 | 1013.2 |
| 20260508151853 | 58 | 270 | 0.0 | 6.1 | 0.00 | 0.01 | 0.00 | 44 | 1013.3 |
| 20260508150833 | 58 | 270 | 0.0 | 11.3 | 0.00 | 0.02 | 0.00 | 45 | 1013.7 |
| 20260508150324 | 56 | 270 | 3.5 | 13.0 | 0.00 | 0.02 | 0.00 | 46 | 1013.8 |
| 20260508145814 | 56 | 248 | 4.3 | 13.0 | 0.00 | 0.02 | 0.00 | 46 | 1013.9 |
| 20260508145306 | 56 | 270 | 2.6 | 12.2 | 0.00 | 0.02 | 0.00 | 48 | 1013.9 |
| 20260508144754 | 56 | 270 | 3.5 | 12.2 | 0.00 | 0.02 | 0.00 | 48 | 1013.9 |
| 20260508143734 | 55 | 270 | 2.6 | 12.2 | 0.00 | 0.02 | 0.00 | 47 | 1014.0 |
| 20260508143225 | 55 | 293 | 5.2 | 12.2 | 0.00 | 0.02 | 0.00 | 48 | 1014.0 |
| 20260508142714 | 55 | 248 | 3.5 | 13.9 | 0.00 | 0.02 | 0.00 | 47 | 1013.8 |
| 20260508142215 | 55 | 248 | 0.9 | 13.9 | 0.00 | 0.02 | 0.00 | 50 | 1013.8 |
| 20260508141654 | 55 | 248 | 4.3 | 12.2 | 0.00 | 0.02 | 0.00 | 48 | 1013.8 |
| 20260508141146 | 55 | 248 | 2.6 | 11.3 | 0.00 | 0.04 | 0.00 | 48 | 1013.8 |
| 20260508140633 | 56 | 270 | 0.9 | 3.5 | 0.00 | 0.06 | 0.00 | 47 | 1013.7 |
| 20260508140121 | 56 | 270 | 0.9 | 9.6 | 0.00 | 0.06 | 0.00 | 48 | 1013.7 |
| 20260508135612 | 54 | 270 | 0.0 | 9.6 | 0.00 | 0.06 | 0.00 | 51 | 1013.6 |
| 20260508135102 | 55 | 270 | 0.9 | 7.8 | 0.00 | 0.06 | 0.00 | 48 | 1013.6 |
| 20260508134552 | 54 | 135 | 0.0 | 7.8 | 0.00 | 0.06 | 0.00 | 51 | 1013.5 |
| 20260508134041 | 54 | 225 | 0.9 | 9.6 | 0.00 | 0.06 | 0.00 | 50 | 1013.6 |
| 20260508133534 | 53 | 270 | 1.7 | 9.6 | 0.00 | 0.06 | 0.00 | 51 | 1013.8 |
| 20260508133024 | 53 | 248 | 1.7 | 9.6 | 0.00 | 0.06 | 0.00 | 51 | 1013.7 |
| 20260508132515 | 52 | 270 | 1.7 | 13.0 | 0.00 | 0.06 | 0.00 | 52 | 1013.5 |
| 20260508132008 | 52 | 270 | 0.0 | 13.0 | 0.00 | 0.06 | 0.00 | 53 | 1013.6 |
| 20260508131455 | 52 | 293 | 3.5 | 13.0 | 0.00 | 0.06 | 0.00 | 53 | 1013.6 |
| 20260508130945 | 51 | 270 | 1.7 | 13.0 | 0.00 | 0.06 | 0.00 | 53 | 1013.5 |
| 20260508130438 | 51 | 270 | 3.5 | 12.2 | 0.00 | 0.06 | 0.00 | 54 | 1013.4 |
| 20260508124905 | 51 | 248 | 0.9 | 9.6 | 0.00 | 0.06 | 0.00 | 56 | 1013.4 |
| 20260508124353 | 50 | 270 | 0.0 | 9.6 | 0.00 | 0.06 | 0.00 | 56 | 1013.4 |
| 20260508123847 | 50 | 270 | 1.7 | 7.0 | 0.00 | 0.06 | 0.00 | 57 | 1013.8 |
| 20260508122312 | 49 | 270 | 0.0 | 12.2 | 0.00 | 0.06 | 0.00 | 59 | 1013.4 |
| 20260508121804 | 48 | 270 | 3.5 | 12.2 | 0.00 | 0.06 | 0.00 | 61 | 1013.2 |
| 20260508121257 | 48 | 248 | 0.0 | 7.0 | 0.00 | 0.06 | 0.00 | 62 | 1013.3 |
| 20260508120742 | 47 | 270 | 0.0 | 7.8 | 0.00 | 0.06 | 0.00 | 62 | 1013.4 |
| 20260508115211 | 46 | 270 | 0.0 | 5.2 | 0.00 | 0.06 | 0.00 | 64 | 1013.2 |
| 20260508114702 | 46 | 248 | 0.0 | 9.6 | 0.00 | 0.06 | 0.00 | 64 | 1013.2 |
| 20260508114154 | 46 | 270 | 2.6 | 9.6 | 0.00 | 0.06 | 0.00 | 64 | 1013.1 |
| 20260508113645 | 46 | 293 | 0.9 | 9.6 | 0.00 | 0.06 | 0.00 | 66 | 1013.2 |
| 20260508113132 | 46 | 270 | 0.9 | 9.6 | 0.00 | 0.06 | 0.00 | 65 | 1013.2 |
| 20260508112620 | 45 | 270 | 0.0 | 9.6 | 0.00 | 0.06 | 0.00 | 66 | 1013.0 |
| 20260508112114 | 45 | 270 | 0.0 | 9.6 | 0.00 | 0.06 | 0.00 | 66 | 1012.8 |
| 20260508111608 | 45 | 293 | 0.0 | 7.0 | 0.00 | 0.06 | 0.00 | 67 | 1012.7 |
| 20260508111053 | 45 | 293 | 0.0 | 9.6 | 0.00 | 0.06 | 0.00 | 67 | 1012.6 |
| 20260508110543 | 44 | 248 | 0.0 | 9.6 | 0.00 | 0.06 | 0.00 | 67 | 1012.7 |
| 20260508110028 | 44 | 248 | 0.0 | 5.2 | 0.00 | 0.06 | 0.00 | 69 | 1012.5 |
| 20260508105517 | 43 | 270 | 0.9 | 5.2 | 0.00 | 0.06 | 0.00 | 70 | 1012.4 |
| 20260508104500 | 43 | 270 | 0.9 | 7.0 | 0.00 | 0.06 | 0.00 | 70 | 1012.4 |
| 20260508103951 | 44 | 270 | 0.9 | 6.1 | 0.00 | 0.06 | 0.00 | 70 | 1012.4 |
| 20260508103445 | 44 | 293 | 0.9 | 6.1 | 0.00 | 0.06 | 0.00 | 70 | 1012.2 |
| 20260508102928 | 43 | 293 | 0.0 | 6.1 | 0.00 | 0.06 | 0.00 | 72 | 1012.1 |
| 20260508102418 | 42 | 270 | 0.0 | 7.0 | 0.00 | 0.06 | 0.00 | 74 | 1012.1 |
| 20260508101403 | 43 | 293 | 0.0 | 3.5 | 0.00 | 0.06 | 0.00 | 73 | 1011.7 |
| 20260508100851 | 43 | 293 | 0.0 | 6.1 | 0.00 | 0.06 | 0.00 | 71 | 1011.7 |
| 20260508100340 | 44 | 270 | 0.0 | 7.0 | 0.00 | 0.06 | 0.00 | 71 | 1011.5 |
| 20260508095831 | 44 | 270 | 0.9 | 7.0 | 0.00 | 0.06 | 0.00 | 71 | 1011.6 |
| 20260508095321 | 44 | 270 | 0.0 | 7.0 | 0.00 | 0.06 | 0.00 | 70 | 1011.5 |
| 20260508094304 | 46 | 270 | 0.9 | 5.2 | 0.00 | 0.06 | 0.00 | 63 | 1011.4 |
| 20260508093751 | 46 | 270 | 0.0 | 5.2 | 0.00 | 0.06 | 0.00 | 63 | 1011.2 |
| 20260508093243 | 46 | 293 | 0.0 | 3.5 | 0.00 | 0.06 | 0.00 | 64 | 1011.4 |
| 20260508092727 | 46 | 293 | 0.0 | 3.5 | 0.00 | 0.06 | 0.00 | 62 | 1011.2 |
| 20260508092219 | 47 | 270 | 0.0 | 5.2 | 0.00 | 0.06 | 0.00 | 61 | 1011.0 |
| 20260508091707 | 47 | 270 | 0.0 | 5.2 | 0.00 | 0.06 | 0.00 | 61 | 1011.0 |
| 20260508091156 | 47 | 293 | 0.0 | 1.7 | 0.00 | 0.06 | 0.00 | 61 | 1011.2 |
| 20260508090645 | 47 | 113 | 0.0 | 0.0 | 0.00 | 0.06 | 0.00 | 61 | 1010.9 |
| 20260508090141 | 47 | 270 | 0.0 | 0.0 | 0.00 | 0.06 | 0.00 | 59 | 1010.9 |
| 20260508085628 | 47 | 338 | 0.0 | 3.5 | 0.00 | 0.06 | 0.00 | 59 | 1010.8 |
| 20260508085120 | 47 | 135 | 0.0 | 7.0 | 0.00 | 0.06 | 0.00 | 61 | 1010.8 |
| 20260508083547 | 46 | 270 | 2.6 | 7.0 | 0.00 | 0.06 | 0.00 | 65 | 1010.6 |
| 20260508083043 | 46 | 270 | 1.7 | 7.0 | 0.00 | 0.06 | 0.00 | 67 | 1010.6 |
| 20260508082527 | 46 | 270 | 0.0 | 7.0 | 0.00 | 0.06 | 0.00 | 68 | 1010.6 |
| 20260508082017 | 46 | 270 | 1.7 | 7.0 | 0.00 | 0.06 | 0.00 | 66 | 1010.5 |
| 20260508081514 | 46 | 270 | 0.0 | 1.7 | 0.00 | 0.06 | 0.00 | 67 | 1010.5 |
| 20260508081001 | 46 | 248 | 0.0 | 6.1 | 0.00 | 0.06 | 0.00 | 67 | 1010.7 |
| 20260508080444 | 46 | 270 | 2.6 | 6.1 | 0.00 | 0.06 | 0.00 | 67 | 1010.5 |
| 20260508075944 | 46 | 248 | 0.0 | 3.5 | 0.00 | 0.06 | 0.00 | 68 | 1010.7 |
| 20260508075423 | 45 | 270 | 0.0 | 0.0 | 0.00 | 0.06 | 0.00 | 69 | 1010.3 |
| 20260508074922 | 45 | 270 | 0.0 | 0.0 | 0.00 | 0.06 | 0.00 | 70 | 1010.4 |
| 20260508074404 | 45 | 270 | 0.0 | 0.0 | 0.00 | 0.06 | 0.00 | 70 | 1010.3 |
| 20260508073346 | 45 | 293 | 0.0 | 0.0 | 0.00 | 0.06 | 0.00 | 71 | 1010.3 |
| 20260508072833 | 46 | 293 | 0.0 | 0.0 | 0.00 | 0.06 | 0.00 | 70 | 1010.3 |
| 20260508072326 | 46 | 293 | 0.0 | 0.0 | 0.00 | 0.06 | 0.00 | 69 | 1010.5 |
| 20260508071813 | 46 | 270 | 0.0 | 0.0 | 0.00 | 0.06 | 0.00 | 70 | 1010.3 |
| 20260508070249 | 46 | 225 | 0.0 | 0.0 | 0.00 | 0.06 | 0.00 | 71 | 1010.4 |
| 20260508065732 | 46 | 270 | 0.0 | 0.0 | 0.00 | 0.06 | 0.00 | 70 | 1010.4 |
| 20260508065228 | 46 | 180 | 0.0 | 1.7 | 0.00 | 0.06 | 0.00 | 70 | 1010.5 |
| 20260508064713 | 46 | 90 | 0.0 | 1.7 | 0.00 | 0.06 | 0.00 | 70 | 1010.3 |
| 20260508064207 | 46 | 225 | 0.0 | 1.7 | 0.00 | 0.06 | 0.00 | 69 | 1010.4 |
| 20260508063701 | 46 | 225 | 0.0 | 1.7 | 0.00 | 0.06 | 0.00 | 69 | 1010.5 |
| 20260508063143 | 46 | 135 | 0.0 | 0.0 | 0.00 | 0.06 | 0.00 | 70 | 1010.5 |
| 20260508062641 | 46 | 270 | 0.0 | 0.0 | 0.00 | 0.06 | 0.00 | 69 | 1010.4 |
| 20260508062125 | 46 | 293 | 0.0 | 0.0 | 0.00 | 0.06 | 0.00 | 70 | 1010.7 |
| 20260508061616 | 45 | 248 | 0.0 | 0.0 | 0.00 | 0.06 | 0.00 | 71 | 1010.5 |
| 20260508061102 | 46 | 270 | 0.0 | 0.0 | 0.00 | 0.06 | 0.00 | 73 | 1010.4 |
| 20260508060554 | 46 | 293 | 0.0 | 0.0 | 0.00 | 0.06 | 0.00 | 71 | 1010.4 |
| 20260508060050 | 46 | 293 | 0.0 | 0.0 | 0.00 | 0.06 | 0.00 | 71 | 1010.4 |
| 20260508055530 | 47 | 23 | 0.0 | 0.0 | 0.00 | 0.06 | 0.00 | 70 | 1010.5 |
| 20260508055024 | 47 | 270 | 0.0 | 0.0 | 0.00 | 0.06 | 0.00 | 70 | 1010.7 |
| 20260508054512 | 47 | 270 | 0.0 | 0.0 | 0.00 | 0.06 | 0.00 | 68 | 1010.7 |
| 20260508054005 | 47 | 270 | 0.0 | 0.0 | 0.00 | 0.06 | 0.00 | 67 | 1010.9 |
| 20260508052433 | 47 | 270 | 0.0 | 0.0 | 0.00 | 0.06 | 0.00 | 69 | 1010.8 |
| 20260508051925 | 47 | 270 | 0.0 | 1.7 | 0.00 | 0.06 | 0.00 | 71 | 1010.8 |
| 20260508050903 | 46 | 293 | 0.0 | 3.5 | 0.00 | 0.06 | 0.00 | 72 | 1010.8 |
| 20260508050351 | 46 | 293 | 0.0 | 1.7 | 0.00 | 0.06 | 0.00 | 73 | 1010.8 |
| 20260508045842 | 46 | 270 | 0.0 | 1.7 | 0.00 | 0.06 | 0.00 | 73 | 1010.7 |
| 20260508045335 | 46 | 270 | 0.0 | 1.7 | 0.00 | 0.06 | 0.00 | 73 | 1010.9 |
| 20260508044821 | 46 | 270 | 0.0 | 1.7 | 0.00 | 0.06 | 0.00 | 73 | 1010.4 |
| 20260508044310 | 46 | 270 | 0.0 | 1.7 | 0.00 | 0.06 | 0.00 | 73 | 1010.6 |
| 20260508043252 | 46 | 293 | 0.0 | 1.7 | 0.00 | 0.06 | 0.00 | 74 | 1010.4 |
| 20260508042232 | 46 | 270 | 0.0 | 1.7 | 0.00 | 0.06 | 0.00 | 74 | 1010.3 |
| 20260508041722 | 47 | 270 | 0.0 | 0.0 | 0.00 | 0.06 | 0.00 | 74 | 1010.2 |
| 20260508040701 | 47 | 270 | 0.0 | 7.0 | 0.00 | 0.06 | 0.00 | 74 | 1010.3 |
| 20260508040154 | 46 | 270 | 0.0 | 3.5 | 0.00 | 0.06 | 0.00 | 75 | 1010.1 |
| 20260508035641 | 46 | 293 | 0.0 | 1.7 | 0.00 | 0.06 | 0.00 | 76 | 1009.9 |
| 20260508034626 | 46 | 270 | 0.0 | 0.0 | 0.00 | 0.06 | 0.00 | 76 | 1009.7 |
| 20260508034114 | 46 | 293 | 0.0 | 0.0 | 0.00 | 0.06 | 0.00 | 76 | 1009.6 |
| 20260508033602 | 45 | 315 | 0.0 | 0.0 | 0.00 | 0.06 | 0.00 | 78 | 1009.4 |
| 20260508033053 | 45 | 270 | 0.0 | 0.0 | 0.00 | 0.06 | 0.00 | 79 | 1009.8 |
| 20260508032541 | 45 | 270 | 0.0 | 0.0 | 0.00 | 0.06 | 0.00 | 78 | 1009.9 |
| 20260508032032 | 46 | 270 | 0.0 | 0.0 | 0.00 | 0.06 | 0.00 | 77 | 1010.4 |
| 20260508031523 | 45 | 293 | 0.0 | 0.0 | 0.00 | 0.06 | 0.00 | 78 | 1010.2 |
| 20260508031009 | 45 | 293 | 0.0 | 0.0 | 0.00 | 0.06 | 0.00 | 79 | 1010.2 |
| 20260508030500 | 45 | 315 | 0.0 | 0.0 | 0.00 | 0.06 | 0.00 | 79 | 1010.1 |
| 20260508025947 | 46 | 270 | 0.0 | 0.0 | 0.00 | 0.06 | 0.06 | 79 | 1010.0 |
| 20260508025438 | 46 | 293 | 0.0 | 0.0 | 0.00 | 0.06 | 0.06 | 79 | 1009.9 |
| 20260508024934 | 45 | 270 | 0.0 | 0.0 | 0.00 | 0.06 | 0.06 | 80 | 1009.8 |
| 20260508024422 | 45 | 270 | 0.0 | 0.0 | 0.00 | 0.06 | 0.06 | 81 | 1009.8 |
| 20260508023359 | 44 | 293 | 0.0 | 0.0 | 0.00 | 0.06 | 0.06 | 82 | 1009.9 |
| 20260508022854 | 44 | 315 | 0.0 | 1.7 | 0.00 | 0.06 | 0.06 | 83 | 1009.8 |
| 20260508022349 | 44 | 293 | 0.0 | 1.7 | 0.00 | 0.06 | 0.06 | 84 | 1009.9 |
| 20260508021828 | 45 | 293 | 0.0 | 0.0 | 0.00 | 0.06 | 0.06 | 82 | 1009.7 |
| 20260508021323 | 45 | 270 | 0.0 | 0.0 | 0.00 | 0.06 | 0.06 | 82 | 1009.9 |
| 20260508020812 | 46 | 293 | 0.0 | 3.5 | 0.00 | 0.06 | 0.06 | 82 | 1010.0 |
| 20260508020259 | 46 | 293 | 0.0 | 3.5 | 0.00 | 0.06 | 0.06 | 81 | 1010.1 |
| 20260508015749 | 46 | 293 | 0.0 | 0.0 | 0.00 | 0.06 | 0.06 | 80 | 1010.0 |
| 20260508015239 | 47 | 293 | 0.0 | 0.0 | 0.00 | 0.06 | 0.06 | 80 | 1010.1 |
| 20260508014220 | 46 | 293 | 0.0 | 0.0 | 0.00 | 0.06 | 0.06 | 80 | 1010.0 |
| 20260508013706 | 46 | 293 | 0.0 | 0.0 | 0.00 | 0.06 | 0.06 | 82 | 1010.0 |
| 20260508013156 | 46 | 293 | 0.0 | 0.0 | 0.00 | 0.06 | 0.06 | 82 | 1010.0 |
| 20260508012646 | 46 | 293 | 0.0 | 0.0 | 0.00 | 0.06 | 0.06 | 83 | 1009.8 |
| 20260508012141 | 46 | 293 | 0.0 | 0.0 | 0.00 | 0.06 | 0.06 | 82 | 1009.7 |
| 20260508011630 | 46 | 315 | 0.0 | 0.0 | 0.00 | 0.06 | 0.06 | 82 | 1009.7 |
| 20260508011118 | 46 | 293 | 0.0 | 0.0 | 0.00 | 0.06 | 0.06 | 83 | 1009.6 |
| 20260508010608 | 46 | 293 | 0.0 | 1.7 | 0.00 | 0.06 | 0.06 | 84 | 1009.4 |
| 20260508005549 | 47 | 270 | 0.0 | 0.0 | 0.00 | 0.06 | 0.06 | 82 | 1009.6 |
| 20260508005040 | 46 | 293 | 0.0 | 0.0 | 0.00 | 0.06 | 0.06 | 82 | 1009.7 |
| 20260508004017 | 47 | 293 | 0.0 | 3.5 | 0.00 | 0.06 | 0.06 | 83 | 1009.4 |
| 20260508003507 | 46 | 293 | 0.0 | 3.5 | 0.00 | 0.06 | 0.06 | 84 | 1009.5 |
| 20260508003000 | 46 | 315 | 0.0 | 0.0 | 0.00 | 0.06 | 0.06 | 85 | 1009.4 |
| 20260508002447 | 46 | 315 | 0.0 | 0.0 | 0.00 | 0.06 | 0.06 | 85 | 1009.3 |
| 20260508001936 | 46 | 293 | 0.0 | 0.0 | 0.00 | 0.06 | 0.06 | 86 | 1009.2 |
| 20260508001431 | 47 | 293 | 0.0 | 0.0 | 0.00 | 0.06 | 0.06 | 85 | 1009.1 |
| 20260508000916 | 47 | 293 | 0.0 | 0.0 | 0.00 | 0.06 | 0.06 | 85 | 1009.0 |
| 20260508000406 | 47 | 315 | 0.0 | 0.0 | 0.00 | 0.06 | 0.06 | 83 | 1009.3 |
| 20260507235855 | 47 | 315 | 0.0 | 0.0 | 0.00 | 0.06 | 0.06 | 84 | 1009.2 |
| 20260507235347 | 47 | 293 | 0.0 | 0.0 | 0.00 | 0.06 | 0.06 | 84 | 1009.3 |
| 20260507234834 | 47 | 315 | 0.0 | 0.0 | 0.00 | 0.06 | 0.06 | 86 | 1009.3 |
| 20260507234324 | 48 | 315 | 0.0 | 0.0 | 0.00 | 0.06 | 0.06 | 84 | 1009.3 |
| 20260507233818 | 48 | 293 | 0.0 | 1.7 | 0.00 | 0.06 | 0.06 | 84 | 1009.3 |
| 20260507233305 | 49 | 293 | 0.0 | 1.7 | 0.00 | 0.06 | 0.06 | 82 | 1009.2 |
| 20260507232756 | 49 | 315 | 0.0 | 0.0 | 0.00 | 0.06 | 0.06 | 83 | 1009.2 |
| 20260507232252 | 49 | 293 | 0.0 | 0.0 | 0.00 | 0.06 | 0.06 | 82 | 1009.3 |
| 20260507231740 | 49 | 293 | 0.0 | 0.0 | 0.00 | 0.06 | 0.06 | 81 | 1009.3 |
| 20260507225657 | 49 | 315 | 0.0 | 0.0 | 0.00 | 0.06 | 0.06 | 81 | 1009.1 |
| 20260507225145 | 50 | 315 | 0.0 | 0.0 | 0.00 | 0.06 | 0.06 | 80 | 1009.0 |
| 20260507224130 | 51 | 293 | 0.0 | 0.0 | 0.00 | 0.06 | 0.06 | 77 | 1008.8 |
| 20260507223102 | 51 | 315 | 0.0 | 0.0 | 0.00 | 0.06 | 0.06 | 76 | 1008.8 |
| 20260507222552 | 52 | 293 | 0.0 | 0.0 | 0.00 | 0.06 | 0.06 | 75 | 1008.6 |
| 20260507222044 | 53 | 293 | 0.0 | 0.0 | 0.00 | 0.06 | 0.06 | 74 | 1008.4 |
| 20260507221538 | 53 | 293 | 0.0 | 0.0 | 0.00 | 0.06 | 0.06 | 73 | 1008.2 |